Sarasota, FL

10:21 AM EDT on June 27, 2017 (GMT -0400)
Sarasota-bradenton

Weather History for KSRQ - May, 2014

Change the Weather History Date:

Thursday, May 29, 2014

  Actual Average Record
Temperature  
Mean Temperature 79 °F 79 °F  
Max Temperature 87 °F 87 °F 95 °F (1989)
Min Temperature 71 °F 70 °F 57 °F (1935)
Degree Days  
Heating Degree Days 0 0  
Month to date heating degree days 0 0  
Since 1 July heating degree days 345 477  
Cooling Degree Days 14 14  
Month to date cooling degree days 365 327  
Year to date cooling degree days 783 724  
Growing Degree Days 29 (Base 50)    
Moisture  
Dew Point 70 °F    
Average Humidity 77    
Maximum Humidity 90    
Minimum Humidity 55    
Precipitation  
Precipitation T in 0.11 in 2.03 in (1970)
Month to date precipitation 6.49 2.00  
Year to date precipitation 17.82 13.49  
Sea Level Pressure  
Sea Level Pressure 29.99 in    
Wind  
Wind Speed 8 mph (ESE)    
Max Wind Speed 20 mph    
Max Gust Speed 25 mph    
Visibility 10 miles    
Events Rain , Thunderstorm    
T = Trace of Precipitation, MM = Missing Value Source: NWS Daily Summary

Daily Weather History Graph

Daily Weather History Graph

Search for Another Location

Airport or City:

Trip Planner

Search our weather history database for the weather conditions in past years. The results will help you decide how hot, cold, wet, or windy it might be!

Date:

Astronomy

May. 29, 2014 Rise Set
Actual Time 6:35 AM EDT 8:19 PM EDT
Civil Twilight 6:09 AM EDT 8:45 PM EDT
Nautical Twilight 5:38 AM EDT 9:16 PM EDT
Astronomical Twilight 5:05 AM EDT 9:49 PM EDT
Moon 7:24 AM EDT (5/29) 9:13 PM EDT (5/29)
Length of Visible Light 14h 35m
Length of Day
13h 43m
New Moon, 1% of the Moon is Illuminated
May 29
New Moon
Jun 5
First Quarter
Jun 13
Full
Jun 19
Last Quarter
Jun 27
New

Hourly Weather History & Observations

Time (EDT) Temp. Heat Index Dew Point Humidity Pressure Visibility Wind Dir Wind Speed Gust Speed Precip Events Conditions
12:53 AM 72.0 °F - 66.9 °F 84% 30.01 in 10.0 mi East 5.8 mph - N/A   Clear
2:53 AM 71.1 °F - 66.9 °F 87% 29.98 in 10.0 mi East 3.5 mph - N/A   Clear
4:53 AM 71.1 °F - 68.0 °F 90% 29.97 in 10.0 mi ENE 4.6 mph - N/A   Clear
5:53 AM 71.1 °F - 68.0 °F 90% 29.98 in 10.0 mi East 4.6 mph - N/A   Clear
6:53 AM 71.1 °F - 68.0 °F 90% 29.99 in 10.0 mi East 5.8 mph - N/A   Clear
7:53 AM 73.9 °F - 70.0 °F 87% 30.01 in 10.0 mi SE 6.9 mph - N/A   Clear
8:53 AM 79.0 °F - 71.1 °F 77% 30.01 in 10.0 mi SE 9.2 mph - N/A   Clear
9:53 AM 82.9 °F 87.5 °F 71.1 °F 67% 30.02 in 10.0 mi SE 10.4 mph - N/A   Clear
10:53 AM 84.9 °F 89.4 °F 70.0 °F 61% 30.02 in 10.0 mi SE 10.4 mph - N/A   Partly Cloudy
11:53 AM 87.1 °F 91.3 °F 69.1 °F 55% 30.02 in 10.0 mi Variable 5.8 mph - N/A   Scattered Clouds
12:53 PM 84.9 °F 90.7 °F 72.0 °F 65% 30.02 in 10.0 mi WSW 10.4 mph - N/A   Partly Cloudy
1:53 PM 86.0 °F 91.5 °F 71.1 °F 61% 30.00 in 10.0 mi SW 10.4 mph - N/A   Clear
2:53 PM 86.0 °F 92.2 °F 72.0 °F 63% 29.97 in 10.0 mi WSW 12.7 mph - N/A   Partly Cloudy
3:53 PM 86.0 °F 92.2 °F 72.0 °F 63% 29.96 in 10.0 mi WSW 12.7 mph - N/A   Clear
4:53 PM 84.9 °F 91.4 °F 73.0 °F 67% 29.95 in 10.0 mi WSW 11.5 mph - N/A   Clear
5:30 PM 82.9 °F 88.0 °F 72.0 °F 69% 29.97 in 10.0 mi SSE 13.8 mph 25.3 mph N/A Thunderstorm Mostly Cloudy
5:41 PM 78.1 °F - 68.0 °F 71% 29.98 in 10.0 mi ESE 18.4 mph - N/A Thunderstorm Overcast
5:46 PM 75.9 °F - 68.0 °F 76% 29.99 in 10.0 mi ESE 18.4 mph - N/A   Overcast
6:05 PM 75.0 °F - 70.0 °F 84% 29.99 in 10.0 mi East 11.5 mph - 0.00 in Rain Light Rain
6:35 PM 77.0 °F - 69.1 °F 76% 29.98 in 10.0 mi East 8.1 mph - 0.00 in Thunderstorm Mostly Cloudy
6:50 PM 77.0 °F - 69.8 °F 78% 29.98 in 10.0 mi East 4.6 mph - 0.00 in   Mostly Cloudy
6:53 PM 77.0 °F - 70.0 °F 79% 29.98 in 10.0 mi East 5.8 mph - 0.00 in   Mostly Cloudy
8:53 PM 75.0 °F - 68.0 °F 79% 30.00 in 10.0 mi East 4.6 mph - N/A   Clear
9:53 PM 73.0 °F - 69.1 °F 87% 30.01 in 10.0 mi ENE 5.8 mph - N/A   Clear
10:53 PM 72.0 °F - 68.0 °F 87% 30.02 in 10.0 mi ENE 8.1 mph - N/A   Clear
11:25 PM 72.0 °F - 68.0 °F 87% 30.03 in 10.0 mi East 5.8 mph - N/A   Partly Cloudy
11:53 PM 71.1 °F - 68.0 °F 90% 30.01 in 10.0 mi East 8.1 mph - N/A   Clear